This demonstration page uses our WeatherBlox Daily Observations layout. Learn more.

Left ArrowRight Arrow

39.08367, -84.50855

Hourly Observations for September 21, 2015

Temp ( °F °C ) Dew Point ( °F °C ) Humidity (%) Winds ( mph kmh ) Pressure ( in mb ) Visibility ( mi km ) Precip ( " mm )
12:53 am 00:53 Mostly Clear 54 12.2 54 12.2 100 100 Calm 30.09 1019 10 16 0.00 0.00
1:53 am 01:53 Mostly Clear 53 11.7 53 11.7 100 100 N 3 6 30.09 1019 10 16 0.00 0.00
2:53 am 02:53 Mostly Cloudy 54 12.2 53 11.7 97 97 Calm 30.09 1019 10 16 0.00 0.00
3:53 am 03:53 Mostly Clear 53 11.7 52 11.1 96 96 Calm 30.08 1019 10 16 0.00 0.00
4:53 am 04:53 Clear 50 10 50 10 100 100 Calm 30.09 1019 10 16 0.00 0.00
5:14 am 05:14 Clear with Mist and Fog 48 9 48 9 100 100 Calm 30.09 1019 1 1 0.00 0.00
5:24 am 05:24 Clear with Mist and Fog 50 10 50 10 100 100 Calm 30.09 1019 3 4 0.00 0.00
5:31 am 05:31 Clear 49 9.4 49 9.4 100 100 Calm 30.09 1019 9 14 0.00 0.00
5:48 am 05:48 Mostly Cloudy with Mist and Fog 50 10 50 10 100 100 Calm 30.09 1019 1 2 0.00 0.00
5:53 am 05:53 Mostly Cloudy with Mist and Fog 49 9.4 49 9.4 100 100 Calm 30.09 1019 1 1 0.00 0.00
6:05 am 06:05 Clear with Mist and Fog 49 9.4 49 9.4 100 100 Calm 30.09 1019 1 1 0.00 0.00
6:11 am 06:11 Mostly Cloudy with Fog 49 9.4 49 9.4 100 100 Calm 30.09 1019 0 0 0.00 0.00
6:35 am 06:35 Mostly Cloudy with Mist and Fog 49 9.4 49 9.4 100 100 Calm 30.12 1020 1 2 0.00 0.00
6:37 am 06:37 Mostly Clear with Mist and Fog 49 9.4 49 9.4 100 100 Calm 30.12 1020 2 3 0.00 0.00
6:44 am 06:44 Clear 50 10 50 10 100 100 Calm 30.12 1020 7 11 0.00 0.00
6:53 am 06:53 Clear 48 8.9 48 8.9 100 100 Calm 30.12 1020 9 14 0.00 0.00
7:00 am 07:00 Clear with Mist and Fog 47 8.3 47 8.3 100 100 NE 3 6 30.12 1020 1 2 0.00 0.00
7:19 am 07:19 Clear 47 8.3 47 8.3 100 100 NE 3 6 30.12 1020 10 16 0.00 0.00
7:53 am 07:53 Sunny 49 9.4 49 9.4 100 100 Calm 30.11 1020 10 16 0.00 0.00
8:53 am 08:53 Sunny 55 12.8 54 12.2 96 96 Calm 30.13 1020 10 16 0.00 0.00
9:53 am 09:53 Sunny 60 15.6 54 12.2 80 80 E 3 6 30.14 1021 10 16 0.00 0.00
10:53 am 10:53 Sunny 65 18.3 55 12.8 70 70 Calm 30.13 1020 10 16 0.00 0.00
11:53 am 11:53 Sunny 71 21.7 51 10.6 49 49 NNE 9 15 30.12 1020 10 16 0.00 0.00
12:53 pm 12:53 Sunny 72 22.2 50 10 46 46 ENE 6 9 30.11 1020 10 16 0.00 0.00
1:53 pm 13:53 Sunny 74 23.3 50 10 43 43 NNE 5 7 30.09 1019 10 16 0.00 0.00
2:53 pm 14:53 Mostly Sunny 75 23.9 52 11.1 45 45 ESE 6 9 30.07 1018 10 16 0.00 0.00
3:53 pm 15:53 Mostly Sunny 75 23.9 52 11.1 45 45 NE 10 17 30.06 1018 10 16 0.00 0.00
4:53 pm 16:53 Sunny 76 24.4 50 10 40 40 NNE 9 15 30.06 1018 10 16 0.00 0.00
5:53 pm 17:53 Sunny 75 23.9 50 10 41 41 ENE 7 11 30.06 1018 10 16 0.00 0.00
6:53 pm 18:53 Sunny 72 22.2 51 10.6 48 48 NE 5 7 30.07 1018 10 16 0.00 0.00
7:53 pm 19:53 Clear 64 17.8 56 13.3 75 75 Calm 30.08 1019 10 16 0.00 0.00
8:53 pm 20:53 Clear 59 15 55 12.8 87 87 Calm 30.10 1019 10 16 0.00 0.00
9:53 pm 21:53 Clear 57 13.9 54 12.2 90 90 Calm 30.11 1020 10 16 0.00 0.00
10:53 pm 22:53 Clear 55 12.8 53 11.7 93 93 Calm 30.11 1020 10 16 0.00 0.00
11:53 pm 23:53 Clear 54 12.2 54 12.2 100 100 Calm 30.11 1020 10 16 0.00 0.00

Powered by AerisWeather